User: anonymous   Login
Location: Unspecified
(0.0000°N, 0.0000°E)
Time: 01:41:35
(UTC+00:00)
Language:

OPAL - Orbit

View from above orbital plane
View from above orbital plane
View from above satellite
View from above satellite

Ground track
Ground track

The orbit data is extracted from the following two-line orbital elements,

1 26063U 00004C   17328.60775173 -.00000015 +00000-0 +15131-4 0  9990
2 26063 100.2197 002.0572 0036135 215.6815 144.1950 14.36681973934212
Epoch (UTC): 24 November 2017 14:35:09
Eccentricity: 0.0036135
inclination: 100.2197°
perigee height: 743 km
apogee height: 795 km
right ascension of ascending node: 2.0572°
argument of perigee: 215.6815°
revolutions per day: 14.36681973
mean anomaly at epoch: 144.1950°
orbit number at epoch: 93421

The dashed part of the orbit path shows where the satellite is in the earth's shadow,  

DLR